SCP
0 0 0 0 0 0 0 0 0 0 0 0 0 0 0 0 0 0 0 0 0 0 0 0 0 0 0 0 0 0 0 0 0 0 0 0 0 0 0 0 0 0 0
0 0 0 0 0 0 0 0 0 0 0 0 0 0 0 0 0 0 0 0 0 0 0 0 0 0 0 0 0 0 0 0 0 0 0 0 0 0 0 0 0 0 0
0 0 0 0 0 0 0 0 0 0 0 0 0 0 0 0 0 0 0 0 0 0 0 0 0 0 0 0 0 0 0 0 0 0 0 0 0 0 0 0 0 0 0
0 0 0 0 0 0 0 0 0 0 0 0 0 0 0 0 0 0 0 0 0 0 0 0 0 0 0 0 0 0 0 0 0 0 0 0 0 0 0 0 0 0 0
0 0 0 0 0 0 0 0 0 0 0 0 0 0 0 0 0 0 0 0 0 0 0 0 0 0 0 0 0 0 1 1 0 0 0 0 0 0 0 0 0 0 0
0 0 0 0 0 0 0 0 0 0 0 0 0 0 0 0 0 0 0 0 0 0 0 0 0 0 0 0 0 0 0 1 0 0 0 0 0 0 0 0 0 0 0
0 0 -0 -0 0 0 0 0 -0 0 -0 -0 0 0 0 0 0 0 0 0 0 0 0 0 0 0 0 0 0 0 0 0 0 0 0 0 0 0 0 0 0 0 0
0 0 0 0 0 0 0 0 0 0 0 0 0 0 0 0 0 0 0 0 0 0 0 0 0 0 0 0 0 0 0 0 0 0 0 0 0 0 0 0 0 0 0
0 0 0 0 0 0 0 0 0 0 0 0 0 0 0 0 0 0 0 0 0 0 0 0 0 0 0 0 0 0 0 0 0 0 0 0 0 0 0 0 0 0 0
0 0 0 0 0 0 0 0 0 0 0 0 0 0 0 0 0 0 0 0 0 0 0 0 0 0 0 0 0 0 0 0 0 0 0 0 0 0 0 0 0 0 0
0 0 0 0 0 0 0 0 0 0 0 0 0 0 0 0 0 0 0 0 0 0 0 0 0 0 0 0 0 0 0 0 0 0 0 0 0 0 0 0 0 0 0
0 0 0 0 0 0 0 0 0 0 0 0 0 0 0 0 0 0 0 0 0 0 0 0 0 0 0 0 0 0 0 0 0 0 0 0 0 0 0 0 0 0 0
0 0 0 0 0 0 0 0 0 0 0 0 0 0 0 0 0 0 0 0 0 0 0 0 0 0 0 0 0 0 0 0 0 0 0 0 0 0 0 0 0 0 0
0 0 0 0 0 0 0 0 0 0 0 0 0 0 0 0 0 0 0 0 0 0 0 0 0 0 0 0 0 0 0 0 0 0 0 0 0 0 0 0 0 0 0
0 0 0 0 -0 0 0 0 0 0 0 0 0 0 0 0 0 0 0 0 0 0 0 0 0 0 0 0 0 0 0 0 0 0 0 0 0 0 0 0 0 0 0
0 0 0 0 0 0 0 0 0 0 0 0 0 0 0 0 0 0 0 0 0 0 0 0 0 0 0 0 0 0 0 0 0 0 0 0 0 0 0 0 0 0 0
0 0 0 0 0 0 0 0 0 0 0 0 0 0 0 0 0 0 0 0 0 0 0 0 0 0 0 0 0 0 0 0 0 0 0 0 0 0 0 0 0 0 0
0 0 0 0 0 0 0 0 0 0 0 0 0 0 0 0 0 0 0 0 0 0 0 0 0 0 0 0 0 0 0 0 0 0 0 0 0 0 0 0 0 0 0
0 0 0 0 0 0 0 0 0 0 0 0 0 0 0 0 0 0 0 0 0 0 0 0 0 0 0 0 0 0 0 0 0 0 0 0 0 0 0 0 0 0 0
0 0 0 0 0 0 0 0 0 0 0 0 0 0 0 0 0 0 0 0 0 0 0 0 0 0 0 0 0 0 0 0 0 0 0 0 0 0 0 0 0 0 0
0 0 0 0 0 0 0 0 0 0 0 0 0 0 0 0 0 0 0 0 0 0 0 0 0 0 0 0 0 0 0 0 0 0 0 0 0 0 0 0 0 0 0
0 0 0 0 0 0 0 0 0 0 0 0 0 0 0 0 0 0 0 0 0 0 0 0 0 0 0 0 0 0 0 0 0 0 0 0 0 0 0 0 0 0 0
0 0 0 0 0 0 0 0 0 0 0 0 0 0 0 0 0 0 0 0 0 0 0 0 0 0 0 0 0 0 0 0 0 0 0 0 0 0 0 0 0 0 0
0 0 0 0 0 0 0 0 0 0 0 0 0 0 0 0 0 0 0 0 0 0 0 0 0 0 0 0 0 0 0 0 0 0 0 0 0 0 0 0 0 0 0
0 0 0 0 0 0 0 0 0 0 0 0 0 0 0 0 0 0 0 0 0 0 0 0 0 0 0 0 0 0 0 0 0 0 0 0 0 0 0 0 0 0 0
0 0 0 0 0 0 0 0 0 0 0 0 0 0 0 0 0 0 0 0 0 0 0 0 0 0 0 0 0 0 0 0 0 0 0 0 0 0 0 0 0 0 0
Wind_Speed_500mb
22 23 25 29 33 36 40 43 46 50 53 56 58 61 63 65 69 74 81 86 93 100 101 101 108 107 111 110 105 105 102 102 109 108 98 95 96 93 84 85 98 83 91
25 26 28 33 37 39 41 44 46 52 56 61 62 65 67 69 72 76 82 86 94 97 100 100 106 105 109 111 114 114 106 110 111 111 97 96 103 106 104 100 96 100 81
27 29 29 32 35 38 40 43 46 49 51 54 59 65 70 72 74 76 84 91 96 101 106 112 112 107 109 108 106 107 109 115 115 115 112 99 104 113 106 109 105 108 92
26 30 31 35 39 42 44 47 50 53 57 60 65 71 74 77 81 86 91 98 106 112 114 114 114 111 115 114 113 115 116 111 109 114 112 100 103 110 112 113 113 108 114
29 34 36 41 45 50 54 55 57 58 61 67 72 74 78 83 86 86 86 86 91 98 104 113 118 120 118 119 119 120 115 111 111 108 105 105 95 111 116 118 115 114 118
38 43 46 52 56 58 59 59 61 64 70 76 82 87 87 86 87 83 82 85 91 95 101 103 107 117 125 124 124 129 134 120 112 109 103 106 107 100 117 119 119 110 108
46 50 51 54 58 59 60 61 63 69 76 83 88 91 91 91 85 85 84 88 94 98 103 105 108 110 112 118 120 116 122 135 140 131 114 117 123 117 117 108 125 127 120
45 51 55 58 60 60 62 64 66 71 77 83 88 90 94 89 86 89 90 92 100 107 105 106 106 112 108 103 107 107 111 117 126 129 137 137 113 123 117 115 132 127 120
47 52 55 59 63 64 66 68 69 74 79 84 87 89 87 91 86 87 89 95 102 104 101 100 99 107 107 100 98 106 109 121 120 120 121 122 124 131 118 132 123 111 93
48 53 55 59 64 65 65 67 69 71 76 82 85 84 81 85 84 82 84 87 97 99 95 94 93 102 103 98 102 109 112 114 110 121 115 120 116 114 129 127 134 117 106
49 54 57 60 65 66 70 70 69 72 76 79 85 84 80 76 78 77 72 76 80 91 95 96 92 92 94 100 96 101 112 102 106 109 107 116 111 119 125 108 131 122 109
49 55 59 62 63 69 75 76 72 70 74 76 80 85 79 72 72 76 74 66 73 85 98 104 104 90 90 90 95 101 98 91 101 101 100 105 97 104 88 92 112 108 96
55 61 63 65 66 70 74 74 70 67 69 73 73 79 85 74 74 75 74 71 66 79 88 91 90 87 78 72 80 90 89 89 93 92 91 93 85 79 84 100 89 84 61
59 63 67 71 74 76 74 70 66 64 64 65 68 72 79 77 73 76 77 74 70 77 85 80 81 80 73 71 62 52 61 67 69 72 73 71 68 74 83 86 87 88 81
62 66 70 76 81 82 77 71 67 63 57 59 61 66 73 81 72 74 73 69 72 67 72 72 69 60 48 34 18 15 23 40 51 61 68 74 77 85 92 92 81 76 80
65 70 76 82 84 82 81 80 70 63 53 48 51 59 67 69 71 72 67 63 58 47 52 57 48 37 27 13 3 16 30 41 55 69 82 89 89 78 77 81 76 79 84
65 72 78 80 80 78 76 74 76 68 56 46 51 55 59 64 67 70 65 53 48 41 38 37 25 16 9 3 22 35 49 62 74 76 70 68 72 78 77 73 67 68 69
66 71 75 76 76 74 71 69 66 66 67 57 46 56 56 60 64 63 59 45 42 34 22 19 13 8 5 15 26 41 56 61 59 61 68 73 74 71 69 70 64 58 55
67 69 68 67 69 69 66 64 60 58 63 58 54 51 52 55 59 61 54 43 38 28 19 17 16 10 6 12 26 33 37 43 49 54 57 57 58 56 57 52 51 57 60
62 63 65 67 65 62 56 53 53 51 55 55 50 52 51 52 55 52 44 36 27 20 12 9 10 12 18 23 28 33 38 41 44 45 45 43 39 37 41 48 51 53 52
59 59 59 58 56 53 50 46 45 47 47 47 48 45 47 47 44 37 28 19 12 12 18 25 28 28 29 29 29 30 31 32 29 29 29 30 34 38 42 46 49 49 49
52 50 47 44 43 44 43 43 40 38 37 37 39 41 38 36 28 21 17 20 25 27 26 25 24 23 21 20 21 22 24 25 25 26 29 34 37 39 42 43 44 43 40
43 42 39 39 37 36 35 35 32 29 31 30 29 31 27 21 22 25 26 25 24 23 21 19 18 19 22 22 22 22 20 23 23 23 24 29 32 33 34 36 35 36 34
30 29 29 29 29 26 24 26 25 22 22 21 21 20 21 24 24 21 20 18 19 20 20 18 18 21 21 19 20 20 19 21 24 25 24 26 29 31 30 30 29 27 25
16 15 15 14 15 16 15 16 14 14 9 11 14 19 22 20 17 15 14 13 12 12 15 17 19 20 22 24 23 23 23 21 22 23 24 23 22 22 21 20 19 20 19
22 26 22 19 14 15 16 12 9 6 4 9 12 13 13 12 13 13 13 12 12 12 12 12 13 15 17 20 23 25 22 20 17 14 14 14 13 14 15 15 15 15 15
Wind_Direction_500mb
277 282 287 289 289 290 288 285 284 284 284 286 289 289 288 288 288 288 288 288 285 285 282 276 273 273 272 270 268 264 258 253 255 265 261 258 260 259 252 251 243 241 250
281 285 291 295 293 291 291 293 294 292 290 290 289 290 290 290 288 285 284 283 284 285 284 279 274 270 267 266 265 264 264 260 255 260 260 260 254 258 259 253 245 231 242
286 296 304 309 306 305 304 302 301 301 300 297 295 293 292 291 289 286 285 284 282 279 278 278 275 270 265 263 261 262 259 261 262 256 258 257 258 254 250 252 251 236 235
291 301 308 309 310 310 311 310 310 310 308 305 303 300 298 296 292 289 287 285 282 280 279 278 276 271 266 263 259 258 258 257 253 258 255 251 252 253 252 250 244 239 231
301 309 311 308 308 311 310 308 309 311 312 312 310 308 306 304 303 301 297 292 288 284 279 275 273 271 269 264 259 258 256 253 252 248 249 253 240 245 244 242 245 245 235
294 313 310 306 307 310 312 313 315 316 317 319 320 320 317 315 317 316 315 307 303 296 290 284 278 273 268 264 261 258 256 254 252 250 244 249 247 252 250 238 243 230 231
290 306 308 307 309 311 313 315 317 317 318 319 320 321 318 320 324 322 316 311 304 296 290 288 286 281 278 272 266 264 261 257 255 255 253 248 254 248 244 241 243 234 233
289 300 302 304 306 309 311 313 315 316 317 318 319 320 318 318 321 319 317 311 304 298 294 288 287 287 283 274 271 268 263 262 258 256 255 254 249 248 255 251 252 239 229
290 298 301 304 307 310 312 313 315 314 315 316 317 318 316 314 318 319 320 319 312 305 299 294 286 284 282 281 275 269 265 260 262 262 262 263 265 260 249 245 229 219 209
290 298 302 306 308 309 311 313 314 313 314 313 314 318 316 313 316 324 329 321 312 308 306 302 295 287 279 277 273 267 266 264 265 261 264 260 259 263 260 240 229 224 213
296 302 307 309 309 310 311 312 313 313 313 313 313 316 314 315 315 325 326 323 320 317 315 317 313 304 289 279 275 269 263 269 264 264 268 266 260 261 248 241 227 228 216
299 305 308 309 311 312 313 314 313 311 309 310 311 312 315 317 318 326 324 323 325 318 317 316 315 311 300 288 271 262 265 269 264 264 259 256 255 244 244 231 226 216 212
300 304 307 308 310 311 311 312 311 308 306 308 310 312 314 318 317 324 321 325 329 326 324 322 316 314 308 295 279 263 255 260 262 258 253 242 228 218 218 212 204 197 195
293 297 301 304 307 309 310 311 308 305 301 304 307 312 313 315 318 324 326 326 331 334 333 330 325 322 316 308 302 274 249 249 245 237 227 215 199 187 183 181 170 153 151
293 299 303 306 309 309 308 308 306 303 297 295 300 306 311 312 317 317 320 326 327 335 336 332 327 324 325 324 290 243 219 213 212 203 189 171 164 161 152 149 151 148 153
299 304 306 307 307 306 306 307 306 305 299 290 293 296 302 305 311 312 316 323 325 328 336 326 326 327 333 359 72 150 149 158 163 163 159 153 148 148 144 145 151 153 146
299 300 303 304 303 304 304 306 307 306 302 290 290 293 295 304 307 311 312 316 316 318 328 312 314 319 339 93 126 141 144 145 146 144 146 151 149 145 144 142 142 143 138
296 298 301 301 302 303 304 304 303 301 301 300 293 295 296 298 299 303 306 303 302 304 313 293 285 263 181 135 133 134 136 142 146 147 148 145 142 138 135 135 136 138 144
299 297 296 298 300 301 301 300 299 298 295 290 297 294 297 293 292 298 302 294 291 288 277 267 269 261 195 148 137 137 137 137 137 137 135 136 135 135 134 138 145 151 151
295 297 298 297 298 298 295 296 296 296 294 292 294 298 297 291 290 293 292 283 275 266 242 188 154 133 125 124 120 119 120 121 122 121 123 127 132 140 144 147 147 149 150
293 294 295 294 296 295 295 292 289 287 287 291 295 298 297 292 289 285 275 254 227 180 146 132 125 119 112 107 103 106 113 116 116 118 120 129 137 141 144 147 148 148 149
296 299 296 295 296 291 292 288 283 282 287 292 294 294 292 284 265 241 199 169 149 139 131 130 134 131 121 115 106 100 101 110 121 131 141 143 144 147 148 149 147 147 146
300 300 299 297 294 291 288 285 286 291 293 292 290 283 271 235 208 183 165 155 147 144 138 132 132 130 117 111 115 117 122 127 130 133 141 142 143 145 145 145 145 148 150
299 301 305 302 297 288 287 292 298 300 294 286 272 251 219 194 179 170 163 161 158 152 141 125 120 127 122 120 128 132 128 129 130 130 132 140 143 144 146 151 153 154 157
312 330 321 322 311 310 321 311 317 308 291 257 226 198 184 175 170 166 162 157 152 153 160 166 163 149 142 132 122 117 117 121 128 133 138 141 146 149 154 157 159 158 159
54 56 52 51 42 41 41 32 41 53 105 149 155 155 155 153 152 148 142 137 142 143 142 145 150 157 155 148 144 140 140 141 137 137 148 154 158 165 172 176 174 173 175
Wind_Speed_850mb
22 23 25 29 33 36 40 43 46 50 53 56 58 61 63 65 69 74 81 86 93 100 101 101 108 107 111 110 105 105 102 102 109 108 98 95 96 93 84 85 98 83 91
25 26 28 33 37 39 41 44 46 52 56 61 62 65 67 69 72 76 82 86 94 97 100 100 106 105 109 111 114 114 106 110 111 111 97 96 103 106 104 100 96 100 81
27 29 29 32 35 38 40 43 46 49 51 54 59 65 70 72 74 76 84 91 96 101 106 112 112 107 109 108 106 107 109 115 115 115 112 99 104 113 106 109 105 108 92
26 30 31 35 39 42 44 47 50 53 57 60 65 71 74 77 81 86 91 98 106 112 114 114 114 111 115 114 113 115 116 111 109 114 112 100 103 110 112 113 113 108 114
29 34 36 41 45 50 54 55 57 58 61 67 72 74 78 83 86 86 86 86 91 98 104 113 118 120 118 119 119 120 115 111 111 108 105 105 95 111 116 118 115 114 118
38 43 46 52 56 58 59 59 61 64 70 76 82 87 87 86 87 83 82 85 91 95 101 103 107 117 125 124 124 129 134 120 112 109 103 106 107 100 117 119 119 110 108
46 50 51 54 58 59 60 61 63 69 76 83 88 91 91 91 85 85 84 88 94 98 103 105 108 110 112 118 120 116 122 135 140 131 114 117 123 117 117 108 125 127 120
45 51 55 58 60 60 62 64 66 71 77 83 88 90 94 89 86 89 90 92 100 107 105 106 106 112 108 103 107 107 111 117 126 129 137 137 113 123 117 115 132 127 120
47 52 55 59 63 64 66 68 69 74 79 84 87 89 87 91 86 87 89 95 102 104 101 100 99 107 107 100 98 106 109 121 120 120 121 122 124 131 118 132 123 111 93
48 53 55 59 64 65 65 67 69 71 76 82 85 84 81 85 84 82 84 87 97 99 95 94 93 102 103 98 102 109 112 114 110 121 115 120 116 114 129 127 134 117 106
49 54 57 60 65 66 70 70 69 72 76 79 85 84 80 76 78 77 72 76 80 91 95 96 92 92 94 100 96 101 112 102 106 109 107 116 111 119 125 108 131 122 109
49 55 59 62 63 69 75 76 72 70 74 76 80 85 79 72 72 76 74 66 73 85 98 104 104 90 90 90 95 101 98 91 101 101 100 105 97 104 88 92 112 108 96
55 61 63 65 66 70 74 74 70 67 69 73 73 79 85 74 74 75 74 71 66 79 88 91 90 87 78 72 80 90 89 89 93 92 91 93 85 79 84 100 89 84 61
59 63 67 71 74 76 74 70 66 64 64 65 68 72 79 77 73 76 77 74 70 77 85 80 81 80 73 71 62 52 61 67 69 72 73 71 68 74 83 86 87 88 81
62 66 70 76 81 82 77 71 67 63 57 59 61 66 73 81 72 74 73 69 72 67 72 72 69 60 48 34 18 15 23 40 51 61 68 74 77 85 92 92 81 76 80
65 70 76 82 84 82 81 80 70 63 53 48 51 59 67 69 71 72 67 63 58 47 52 57 48 37 27 13 3 16 30 41 55 69 82 89 89 78 77 81 76 79 84
65 72 78 80 80 78 76 74 76 68 56 46 51 55 59 64 67 70 65 53 48 41 38 37 25 16 9 3 22 35 49 62 74 76 70 68 72 78 77 73 67 68 69
66 71 75 76 76 74 71 69 66 66 67 57 46 56 56 60 64 63 59 45 42 34 22 19 13 8 5 15 26 41 56 61 59 61 68 73 74 71 69 70 64 58 55
67 69 68 67 69 69 66 64 60 58 63 58 54 51 52 55 59 61 54 43 38 28 19 17 16 10 6 12 26 33 37 43 49 54 57 57 58 56 57 52 51 57 60
62 63 65 67 65 62 56 53 53 51 55 55 50 52 51 52 55 52 44 36 27 20 12 9 10 12 18 23 28 33 38 41 44 45 45 43 39 37 41 48 51 53 52
59 59 59 58 56 53 50 46 45 47 47 47 48 45 47 47 44 37 28 19 12 12 18 25 28 28 29 29 29 30 31 32 29 29 29 30 34 38 42 46 49 49 49
52 50 47 44 43 44 43 43 40 38 37 37 39 41 38 36 28 21 17 20 25 27 26 25 24 23 21 20 21 22 24 25 25 26 29 34 37 39 42 43 44 43 40
43 42 39 39 37 36 35 35 32 29 31 30 29 31 27 21 22 25 26 25 24 23 21 19 18 19 22 22 22 22 20 23 23 23 24 29 32 33 34 36 35 36 34
30 29 29 29 29 26 24 26 25 22 22 21 21 20 21 24 24 21 20 18 19 20 20 18 18 21 21 19 20 20 19 21 24 25 24 26 29 31 30 30 29 27 25
16 15 15 14 15 16 15 16 14 14 9 11 14 19 22 20 17 15 14 13 12 12 15 17 19 20 22 24 23 23 23 21 22 23 24 23 22 22 21 20 19 20 19
22 26 22 19 14 15 16 12 9 6 4 9 12 13 13 12 13 13 13 12 12 12 12 12 13 15 17 20 23 25 22 20 17 14 14 14 13 14 15 15 15 15 15
Wind_Direction_850mb
277 282 287 289 289 290 288 285 284 284 284 286 289 289 288 288 288 288 288 288 285 285 282 276 273 273 272 270 268 264 258 253 255 265 261 258 260 259 252 251 243 241 250
281 285 291 295 293 291 291 293 294 292 290 290 289 290 290 290 288 285 284 283 284 285 284 279 274 270 267 266 265 264 264 260 255 260 260 260 254 258 259 253 245 231 242
286 296 304 309 306 305 304 302 301 301 300 297 295 293 292 291 289 286 285 284 282 279 278 278 275 270 265 263 261 262 259 261 262 256 258 257 258 254 250 252 251 236 235
291 301 308 309 310 310 311 310 310 310 308 305 303 300 298 296 292 289 287 285 282 280 279 278 276 271 266 263 259 258 258 257 253 258 255 251 252 253 252 250 244 239 231
301 309 311 308 308 311 310 308 309 311 312 312 310 308 306 304 303 301 297 292 288 284 279 275 273 271 269 264 259 258 256 253 252 248 249 253 240 245 244 242 245 245 235
294 313 310 306 307 310 312 313 315 316 317 319 320 320 317 315 317 316 315 307 303 296 290 284 278 273 268 264 261 258 256 254 252 250 244 249 247 252 250 238 243 230 231
290 306 308 307 309 311 313 315 317 317 318 319 320 321 318 320 324 322 316 311 304 296 290 288 286 281 278 272 266 264 261 257 255 255 253 248 254 248 244 241 243 234 233
289 300 302 304 306 309 311 313 315 316 317 318 319 320 318 318 321 319 317 311 304 298 294 288 287 287 283 274 271 268 263 262 258 256 255 254 249 248 255 251 252 239 229
290 298 301 304 307 310 312 313 315 314 315 316 317 318 316 314 318 319 320 319 312 305 299 294 286 284 282 281 275 269 265 260 262 262 262 263 265 260 249 245 229 219 209
290 298 302 306 308 309 311 313 314 313 314 313 314 318 316 313 316 324 329 321 312 308 306 302 295 287 279 277 273 267 266 264 265 261 264 260 259 263 260 240 229 224 213
296 302 307 309 309 310 311 312 313 313 313 313 313 316 314 315 315 325 326 323 320 317 315 317 313 304 289 279 275 269 263 269 264 264 268 266 260 261 248 241 227 228 216
299 305 308 309 311 312 313 314 313 311 309 310 311 312 315 317 318 326 324 323 325 318 317 316 315 311 300 288 271 262 265 269 264 264 259 256 255 244 244 231 226 216 212
300 304 307 308 310 311 311 312 311 308 306 308 310 312 314 318 317 324 321 325 329 326 324 322 316 314 308 295 279 263 255 260 262 258 253 242 228 218 218 212 204 197 195
293 297 301 304 307 309 310 311 308 305 301 304 307 312 313 315 318 324 326 326 331 334 333 330 325 322 316 308 302 274 249 249 245 237 227 215 199 187 183 181 170 153 151
293 299 303 306 309 309 308 308 306 303 297 295 300 306 311 312 317 317 320 326 327 335 336 332 327 324 325 324 290 243 219 213 212 203 189 171 164 161 152 149 151 148 153
299 304 306 307 307 306 306 307 306 305 299 290 293 296 302 305 311 312 316 323 325 328 336 326 326 327 333 359 72 150 149 158 163 163 159 153 148 148 144 145 151 153 146
299 300 303 304 303 304 304 306 307 306 302 290 290 293 295 304 307 311 312 316 316 318 328 312 314 319 339 93 126 141 144 145 146 144 146 151 149 145 144 142 142 143 138
296 298 301 301 302 303 304 304 303 301 301 300 293 295 296 298 299 303 306 303 302 304 313 293 285 263 181 135 133 134 136 142 146 147 148 145 142 138 135 135 136 138 144
299 297 296 298 300 301 301 300 299 298 295 290 297 294 297 293 292 298 302 294 291 288 277 267 269 261 195 148 137 137 137 137 137 137 135 136 135 135 134 138 145 151 151
295 297 298 297 298 298 295 296 296 296 294 292 294 298 297 291 290 293 292 283 275 266 242 188 154 133 125 124 120 119 120 121 122 121 123 127 132 140 144 147 147 149 150
293 294 295 294 296 295 295 292 289 287 287 291 295 298 297 292 289 285 275 254 227 180 146 132 125 119 112 107 103 106 113 116 116 118 120 129 137 141 144 147 148 148 149
296 299 296 295 296 291 292 288 283 282 287 292 294 294 292 284 265 241 199 169 149 139 131 130 134 131 121 115 106 100 101 110 121 131 141 143 144 147 148 149 147 147 146
300 300 299 297 294 291 288 285 286 291 293 292 290 283 271 235 208 183 165 155 147 144 138 132 132 130 117 111 115 117 122 127 130 133 141 142 143 145 145 145 145 148 150
299 301 305 302 297 288 287 292 298 300 294 286 272 251 219 194 179 170 163 161 158 152 141 125 120 127 122 120 128 132 128 129 130 130 132 140 143 144 146 151 153 154 157
312 330 321 322 311 310 321 311 317 308 291 257 226 198 184 175 170 166 162 157 152 153 160 166 163 149 142 132 122 117 117 121 128 133 138 141 146 149 154 157 159 158 159
54 56 52 51 42 41 41 32 41 53 105 149 155 155 155 153 152 148 142 137 142 143 142 145 150 157 155 148 144 140 140 141 137 137 148 154 158 165 172 176 174 173 175